FENGYUN 1C DEB, 29767

Orbit data source: Space-Track

FENGYUN 1C DEB, 29767 is space debris in SSO originally from a launch on Mon, 10 May 1999 UTC launched from the Taiyaun Space Center, China (TSC). Fengyun 1C debris stems from the Chinese weather satellite Fengyun-1C, which was intentionally destroyed by a Chinese anti-satellite missile in 2007. This event dramatically increased the amount of space debris, with thousands of trackable fragments posing hazards to satellites and human spaceflight. The Fengyun 1C debris cloud has become a focal point in discussions about space sustainability and the need for international regulations to prevent the creation of new debris.

Loading next visibility...
Identifier
29767, 1999-025BH
Orbit
SSO
Country
Flag of CNCN / PRC
Related business
Manufacturer
Unknown
Mission
Spacecraft
Bus & Motor
Unknown
Mass
Unknown
Launch date (UTC)
1999-05-10 (27 years ago)
Launch vehicle
Unknown
Launch site
Taiyaun Space Center, China (TSC)
Object type
Payload
Rocket body
Debris
Shape & HBR
Unknown shape, 0.1 m
Radar Cross Section
Small (<0.1 m²)

Expand to show TLE details & history
Last TLE update: 8 hours ago

TLE from 8 hours ago
0 FENGYUN 1C DEB
1 29767U 99025BH  26254.57208655  .00003222  00000-0  12424-2 0  9997
2 29767  98.2169 202.8386 0326278   2.6864  51.6086 14.05520440994307
Epoch: 2026-09-11T13:43Z
TLE epoch observation values (Epoch: 2026-09-11T13:43:48.277Z)
Latitude
56.49584°
Longitude
-6.23681°
Altitude
742.056 km
Speed
7.562 km/s
True Right ascension
12h 41m 13s
True Declination
56° 20' 13"
Sunlit
Object was in daylight at epoch
Visualization orbit readout
Latitude
Unknown
Longitude
Unknown
Altitude
Unknown
Speed
Unknown
Apparent Right ascension
Unknown
Apparent Declination
Unknown
Sunlit
N/A
Visualization observer readout
Local Sidereal Time
13:42:59
Azimuth
Unknown
Elevation
Unknown
Doppler factor
Unknown
Orbital elements
Apogee altitude
1,108.445 km
Perigee altitude
635.34 km
Semi-major axis
7,250.029 km
Eccentricity
0.03263
Inclination
98.2169°
RAAN
202.8386°
Arg. of periapsis
2.6864°
True anomaly
54.61377°
Mean anomaly
51.6086°
Eccentric anomaly
53.10363°
Mean motion
3.51588 °/min
Orbital period
102.39 mins
BSTAR
0.0012424
Loading maneuver chart data...
Computing Atmospheric mass density...
Loading historical data...
Loading historical data...
Loading historical data...
Loading historical data...
Loading historical data...
Loading historical data...
Loading historical data...

Documentation

Showing up to 5 results
|